Flag for Moldova Weather past 2 weeks in Tiraspol, Moldova

Now
72 °F

Clear.


Feels Like: 75 °F
Forecast: 68 / 91 °F
Wind: 7 mph from North

Location: Chisinau International Airport

Current Time: Sep 4, 2015 at 5:04:29 AM

Latest Report: Sep 4, 2015 at 4:30 AM


Visibility: 3 mi

Pressure: 29.92 "Hg

Humidity: 69%

Dew point: 61 °F

Location of TiraspolLocation

Historic Weather in Tiraspol — Graph

°F

Tiraspol temperature yesterday

Maximum temperature yesterday: 97 °F (at 4:30 PM)
Minimum temperature yesterday: 63 °F (at 7:00 AM)
Average temperature yesterday: 80 °F

Past Weeks' High & Low Weather Summary

 TemperatureHumidityPressure
High99 °F (Sep 2, 2:30 PM)88% (Sep 3, 7:00 AM)30.27 "Hg (Sep 3, 7:00 AM)
Low54 °F (Aug 25, 7:00 AM)13% (Sep 2, 5:00 PM)29.80 "Hg (Sep 2, 5:00 PM)
Average76 °F42%30.05 "Hg
* Reported Aug 20 4:00 AM — Sep 4 4:00 AM, Tiraspol, Weather by CustomWeather, © 2015

Note: Actual official high and low records may vary slightly from our data, if they occured in-between our weather recording intervals... More about our weather records

Advertising

Tiraspol weather history for previous 24 hours

 ConditionsComfort  
Time TempWeatherWind HumidityBarometerVisibility
4:00 AM
Fri, Sep 4
72 °FClear.7 mph65%29.92 "Hg3 mi
3:30 AM72 °FClear.6 mph65%29.92 "Hg3 mi
3:00 AM72 °FClear.7 mph65%29.89 "Hg4 mi
2:30 AM72 °FClear.5 mph65%29.89 "Hg4 mi
2:00 AM73 °FClear.6 mph61%29.89 "Hg4 mi
1:30 AM73 °FClear.5 mph57%29.89 "Hg4 mi
1:00 AM75 °FClear.5 mph54%29.89 "Hg4 mi
12:30 AM73 °FClear.6 mph57%29.89 "Hg10 mi
12:00 AM75 °FClear.5 mph54%29.89 "Hg10 mi
11:30 PM
Thu, Sep 3
75 °FClear.5 mph54%29.89 "Hg10 mi
11:00 PM77 °FClear.6 mph51%29.89 "Hg10 mi
10:30 PM79 °FClear.5 mph45%29.89 "Hg10 mi
10:00 PM82 °FClear.1 mph40%29.89 "Hg10 mi
9:30 PM81 °FPassing clouds.5 mph42%29.86 "HgN/A
9:00 PM81 °FClear.3 mph39%29.86 "Hg10 mi
8:30 PM82 °FPassing clouds.3 mph37%29.86 "HgN/A
8:00 PM84 °FSunny.6 mph33%29.83 "Hg10 mi
7:30 PM86 °FSunny.8 mph31%29.83 "Hg10 mi
7:00 PM91 °FSunny.9 mph24%29.83 "Hg10 mi
6:30 PM93 °FSunny.7 mph17%29.83 "Hg10 mi
6:00 PM95 °FPassing clouds.7 mph15%29.80 "HgN/A
5:30 PM95 °FPassing clouds.8 mph14%29.80 "HgN/A
5:00 PM97 °FPassing clouds.7 mph14%29.80 "HgN/A
4:30 PM97 °FPassing clouds.7 mph14%29.80 "HgN/A
4:00 PM95 °FPassing clouds.8 mph18%29.83 "HgN/A
3:30 PM95 °FSunny.7 mph16%29.83 "Hg10 mi
3:00 PM95 °FSunny.7 mph18%29.83 "Hg10 mi
2:30 PM95 °FPassing clouds.9 mph20%29.83 "HgN/A
2:00 PM93 °FSunny.5 mph21%29.86 "Hg10 mi
1:30 PM91 °FSunny.6 mph24%29.86 "Hg10 mi
1:00 PM91 °FPassing clouds.5 mph26%29.86 "HgN/A
12:30 PM88 °FPassing clouds.6 mph31%29.86 "HgN/A
12:00 PM88 °FSunny.3 mph31%29.86 "Hg10 mi
11:30 AM86 °FSunny.5 mph38%29.86 "Hg10 mi
11:00 AM82 °FSunny.3 mph45%29.86 "Hg10 mi
10:30 AM81 °FPassing clouds.5 mph51%29.86 "HgN/A
10:00 AM75 °FPassing clouds.5 mph65%29.86 "HgN/A
9:30 AM73 °FPassing clouds.5 mph69%29.86 "HgN/A
9:00 AM70 °FPassing clouds.7 mph78%29.86 "HgN/A
8:30 AM68 °FPassing clouds.3 mph83%29.86 "HgN/A
8:00 AM68 °FPassing clouds.3 mph78%29.86 "HgN/A
7:30 AM64 °FPassing clouds.5 mph88%29.86 "HgN/A
7:00 AM63 °FClear.5 mph88%29.86 "Hg10 mi
6:30 AM64 °FClear.5 mph78%29.86 "Hg10 mi
6:00 AM66 °FClear.2 mph78%29.86 "Hg10 mi
5:30 AM66 °FClear.No wind78%29.86 "Hg10 mi
5:00 AM66 °FClear.3 mph78%29.86 "Hg10 mi
Weather by CustomWeather, © 2015

See weather overviewHow to use our weather pages